Time,TemperatureF,DewpointF,PressureIn,WindDirection,WindDirectionDegrees,WindSpeedMPH,WindSpeedGustMPH,Humidity,HourlyPrecipIn,Conditions,Clouds,dailyrainin,SoftwareType,DateUTC
2013-01-12 00:09:00,37.8,37.0,30.00,NE,46,6.0,8.0,97,0.00,CLR,,0.00,WeatherDisplay:10.37,2013-01-12 00:09:00,
2013-01-12 00:24:00,37.8,37.0,30.00,NE,39,6.0,8.0,97,0.00,CLR,,0.00,WeatherDisplay:10.37,2013-01-12 00:24:00,
2013-01-12 00:39:00,37.6,36.8,30.00,ENE,66,6.0,8.0,97,0.00,CLR,,0.00,WeatherDisplay:10.37,2013-01-12 00:39:00,
2013-01-12 00:54:00,37.6,36.8,30.00,NE,41,6.0,8.0,97,0.00,CLR,,0.00,WeatherDisplay:10.37,2013-01-12 00:54:00,
2013-01-12 01:09:00,37.4,36.6,30.00,ENE,78,6.0,7.0,97,0.00,CLR,,0.00,WeatherDisplay:10.37,2013-01-12 01:09:00,
2013-01-12 01:24:00,37.4,36.6,30.00,ENE,60,5.0,6.0,97,0.00,CLR,,0.00,WeatherDisplay:10.37,2013-01-12 01:24:00,
2013-01-12 01:39:00,37.4,36.6,29.97,ENE,68,6.0,6.0,97,0.00,CLR,,0.00,WeatherDisplay:10.37,2013-01-12 01:39:00,
2013-01-12 01:54:00,37.6,37.1,29.97,NE,48,6.0,6.0,98,0.00,CLR,,0.00,WeatherDisplay:10.37,2013-01-12 01:54:00,
2013-01-12 02:09:00,37.6,36.8,29.97,NE,55,6.0,9.0,97,0.00,CLR,,0.00,WeatherDisplay:10.37,2013-01-12 02:09:00,
2013-01-12 02:24:00,37.8,37.0,30.00,NE,51,7.0,8.0,97,0.00,CLR,,0.00,WeatherDisplay:10.37,2013-01-12 02:24:00,
2013-01-12 02:39:00,37.8,37.0,29.99,NE,53,3.0,9.0,97,0.00,CLR,,0.00,WeatherDisplay:10.37,2013-01-12 02:39:00,
2013-01-12 02:54:00,37.8,37.0,29.97,NE,45,6.0,8.0,97,0.00,CLR,,0.00,WeatherDisplay:10.37,2013-01-12 02:54:00,
2013-01-12 03:09:00,37.8,37.0,29.97,NE,45,5.0,10.0,97,0.00,CLR,,0.00,WeatherDisplay:10.37,2013-01-12 03:09:00,
2013-01-12 03:24:00,37.8,37.0,29.97,NE,52,6.0,8.0,97,0.00,CLR,,0.00,WeatherDisplay:10.37,2013-01-12 03:24:00,
2013-01-12 03:39:00,37.6,36.8,29.97,NE,52,5.0,9.0,97,0.00,CLR,,0.00,WeatherDisplay:10.37,2013-01-12 03:39:00,
2013-01-12 03:54:00,37.2,36.4,29.97,NE,54,3.0,8.0,97,0.00,CLR,,0.00,WeatherDisplay:10.37,2013-01-12 03:54:00,
2013-01-12 04:09:00,36.9,36.1,29.97,NE,48,6.0,10.0,97,0.00,CLR,,0.00,WeatherDisplay:10.37,2013-01-12 04:09:00,
2013-01-12 04:24:00,36.7,35.9,29.97,ENE,63,2.0,10.0,97,0.00,CLR,,0.00,WeatherDisplay:10.37,2013-01-12 04:24:00,
2013-01-12 04:39:00,36.5,35.7,29.97,East,79,8.0,9.0,97,0.00,CLR,,0.00,WeatherDisplay:10.37,2013-01-12 04:39:00,
2013-01-12 04:54:00,36.5,35.7,29.97,ENE,66,5.0,7.0,97,0.00,CLR,,0.00,WeatherDisplay:10.37,2013-01-12 04:54:00,
2013-01-12 05:09:00,36.5,35.5,29.97,ENE,61,5.0,10.0,96,0.00,CLR,,0.00,WeatherDisplay:10.37,2013-01-12 05:09:00,
2013-01-12 05:24:00,36.3,35.3,29.97,East,90,5.0,8.0,96,0.00,CLR,,0.00,WeatherDisplay:10.37,2013-01-12 05:24:00,
2013-01-12 05:39:00,36.3,35.3,29.97,NE,43,6.0,8.0,96,0.00,CLR,,0.00,WeatherDisplay:10.37,2013-01-12 05:39:00,
2013-01-12 05:54:00,36.3,35.3,29.97,NE,45,3.0,7.0,96,0.00,CLR,,0.00,WeatherDisplay:10.37,2013-01-12 05:54:00,
2013-01-12 06:09:00,36.3,35.3,29.97,NE,51,8.0,8.0,96,0.00,CLR,,0.00,WeatherDisplay:10.37,2013-01-12 06:09:00,
2013-01-12 06:24:00,36.3,35.3,30.00,ENE,58,7.0,8.0,96,0.00,CLR,,0.00,WeatherDisplay:10.37,2013-01-12 06:24:00,
2013-01-12 06:39:00,36.3,35.3,30.00,NE,56,8.0,8.0,96,0.00,CLR,,0.00,WeatherDisplay:10.37,2013-01-12 06:39:00,
2013-01-12 06:54:00,36.5,35.5,30.00,ENE,68,5.0,9.0,96,0.00,CLR,,0.00,WeatherDisplay:10.37,2013-01-12 06:54:00,
2013-01-12 07:09:00,36.5,35.5,30.00,NE,55,6.0,6.0,96,0.00,CLR,,0.00,WeatherDisplay:10.37,2013-01-12 07:09:00,
2013-01-12 07:24:00,36.3,35.3,30.00,NE,45,6.0,8.0,96,0.00,CLR,,0.00,WeatherDisplay:10.37,2013-01-12 07:24:00,
2013-01-12 07:39:00,36.3,35.3,30.00,NE,43,5.0,6.0,96,0.00,CLR,,0.00,WeatherDisplay:10.37,2013-01-12 07:39:00,
2013-01-12 07:54:00,36.5,35.5,30.01,ENE,76,2.0,6.0,96,0.00,CLR,,0.00,WeatherDisplay:10.37,2013-01-12 07:54:00,
2013-01-12 08:09:00,36.5,35.5,30.03,NE,40,3.0,5.0,96,0.00,CLR,,0.00,WeatherDisplay:10.37,2013-01-12 08:09:00,
2013-01-12 08:24:00,36.7,35.6,30.03,ENE,66,2.0,5.0,96,0.00,CLR,,0.00,WeatherDisplay:10.37,2013-01-12 08:24:00,
2013-01-12 08:39:00,36.9,35.8,30.03,ENE,62,3.0,6.0,96,0.00,CLR,,0.00,WeatherDisplay:10.37,2013-01-12 08:39:00,
2013-01-12 08:54:00,36.9,35.8,30.06,ENE,65,3.0,4.0,96,0.00,CLR,,0.00,WeatherDisplay:10.37,2013-01-12 08:54:00,
2013-01-12 09:09:00,36.9,35.8,30.03,NE,53,0.0,3.0,96,0.00,CLR,,0.00,WeatherDisplay:10.37,2013-01-12 09:09:00,
2013-01-12 09:24:00,37.0,36.0,30.06,NNE,25,0.0,5.0,96,0.00,CLR,,0.00,WeatherDisplay:10.37,2013-01-12 09:24:00,
2013-01-12 09:39:00,36.9,35.8,30.06,ENE,59,0.0,5.0,96,0.00,CLR,,0.00,WeatherDisplay:10.37,2013-01-12 09:39:00,
2013-01-12 09:54:00,37.0,36.0,30.09,ENE,74,0.0,4.0,96,0.00,CLR,,0.00,WeatherDisplay:10.37,2013-01-12 09:54:00,
2013-01-12 10:09:00,37.2,36.2,30.06,ENE,59,2.0,4.0,96,0.00,CLR,,0.00,WeatherDisplay:10.37,2013-01-12 10:09:00,
2013-01-12 10:24:00,37.6,36.5,30.09,East,80,1.0,3.0,96,0.00,CLR,,0.00,WeatherDisplay:10.37,2013-01-12 10:24:00,
2013-01-12 10:39:00,37.8,36.7,30.06,East,81,3.0,5.0,96,0.00,CLR,,0.00,WeatherDisplay:10.37,2013-01-12 10:39:00,
2013-01-12 10:54:00,37.9,36.6,30.09,ENE,57,3.0,5.0,95,0.00,CLR,,0.00,WeatherDisplay:10.37,2013-01-12 10:54:00,
2013-01-12 11:09:00,38.1,36.8,30.09,East,81,2.0,4.0,95,0.00,CLR,,0.00,WeatherDisplay:10.37,2013-01-12 11:09:00,
2013-01-12 11:24:00,38.1,36.8,30.09,ENE,63,2.0,6.0,95,0.00,CLR,,0.00,WeatherDisplay:10.37,2013-01-12 11:24:00,
2013-01-12 11:39:00,38.4,36.8,30.09,NE,56,3.0,3.0,94,0.00,CLR,,0.00,WeatherDisplay:10.37,2013-01-12 11:39:00,
2013-01-12 11:54:00,38.5,36.9,30.09,ENE,65,5.0,7.0,94,0.00,CLR,,0.00,WeatherDisplay:10.37,2013-01-12 11:54:00,
2013-01-12 12:09:00,38.7,37.1,30.09,East,82,7.0,7.0,94,0.00,CLR,,0.00,WeatherDisplay:10.37,2013-01-12 12:09:00,
2013-01-12 12:24:00,38.7,36.8,30.09,NE,47,3.0,7.0,93,0.00,CLR,,0.00,WeatherDisplay:10.37,2013-01-12 12:24:00,
2013-01-12 12:39:00,38.7,36.8,30.09,NE,45,3.0,5.0,93,0.00,CLR,,0.00,WeatherDisplay:10.37,2013-01-12 12:39:00,
2013-01-12 12:54:00,38.7,36.5,30.09,ENE,68,3.0,4.0,92,0.00,CLR,,0.00,WeatherDisplay:10.37,2013-01-12 12:54:00,
2013-01-12 13:09:00,38.7,36.5,30.09,East,85,3.0,5.0,92,0.00,CLR,,0.00,WeatherDisplay:10.37,2013-01-12 13:09:00,
2013-01-12 13:24:00,38.7,36.3,30.09,East,93,3.0,5.0,91,0.00,CLR,,0.00,WeatherDisplay:10.37,2013-01-12 13:24:00,
2013-01-12 13:39:00,38.7,36.3,30.09,East,82,3.0,6.0,91,0.00,CLR,,0.00,WeatherDisplay:10.37,2013-01-12 13:39:00,
2013-01-12 13:54:00,38.7,36.3,30.09,ENE,76,3.0,6.0,91,0.00,CLR,,0.00,WeatherDisplay:10.37,2013-01-12 13:54:00,
2013-01-12 14:09:00,38.7,36.3,30.09,ENE,71,3.0,7.0,91,0.00,CLR,,0.00,WeatherDisplay:10.37,2013-01-12 14:09:00,
2013-01-12 14:24:00,38.5,36.1,30.09,ENE,70,5.0,5.0,91,0.00,CLR,,0.00,WeatherDisplay:10.37,2013-01-12 14:24:00,
2013-01-12 14:54:00,38.5,36.1,30.12,NE,36,0.0,5.0,91,0.00,CLR,,0.00,WeatherDisplay:10.37,2013-01-12 14:54:00,
2013-01-12 15:09:00,38.5,36.1,30.12,NE,51,5.0,5.0,91,0.00,CLR,,0.00,WeatherDisplay:10.37,2013-01-12 15:09:00,
2013-01-12 15:24:00,38.5,36.1,30.12,NE,45,5.0,6.0,91,0.00,CLR,,0.00,WeatherDisplay:10.37,2013-01-12 15:24:00,
2013-01-12 15:39:00,38.5,36.1,30.12,NE,45,5.0,5.0,91,0.00,CLR,,0.00,WeatherDisplay:10.37,2013-01-12 15:39:00,
2013-01-12 15:54:00,38.5,36.1,30.12,NE,36,3.0,6.0,91,0.00,CLR,,0.00,WeatherDisplay:10.37,2013-01-12 15:54:00,
2013-01-12 16:09:00,38.5,36.1,30.12,ENE,76,2.0,6.0,91,0.00,CLR,,0.00,WeatherDisplay:10.37,2013-01-12 16:09:00,
2013-01-12 16:24:00,38.5,36.1,30.12,East,86,5.0,6.0,91,0.00,CLR,,0.00,WeatherDisplay:10.37,2013-01-12 16:24:00,
2013-01-12 16:39:00,38.3,35.9,30.12,ENE,78,3.0,5.0,91,0.00,CLR,,0.00,WeatherDisplay:10.37,2013-01-12 16:39:00,
2013-01-12 16:54:00,38.3,35.9,30.15,ENE,70,1.0,4.0,91,0.00,CLR,,0.00,WeatherDisplay:10.37,2013-01-12 16:54:00,
2013-01-12 17:09:00,38.3,35.9,30.15,NE,45,1.0,4.0,91,0.00,CLR,,0.00,WeatherDisplay:10.37,2013-01-12 17:09:00,
2013-01-12 17:24:00,38.1,35.7,30.15,NE,45,3.0,3.0,91,0.00,CLR,,0.00,WeatherDisplay:10.37,2013-01-12 17:24:00,
2013-01-12 17:39:00,38.1,35.7,30.15,NE,45,2.0,6.0,91,0.00,CLR,,0.00,WeatherDisplay:10.37,2013-01-12 17:39:00,
2013-01-12 17:54:00,37.9,35.3,30.15,NNE,28,5.0,5.0,90,0.00,CLR,,0.00,WeatherDisplay:10.37,2013-01-12 17:54:00,
2013-01-12 18:09:00,37.9,35.3,30.15,NNE,31,0.0,5.0,90,0.00,CLR,,0.00,WeatherDisplay:10.37,2013-01-12 18:09:00,
2013-01-12 18:24:00,37.9,35.5,30.15,NE,43,0.0,0.0,91,0.00,CLR,,0.00,WeatherDisplay:10.37,2013-01-12 18:24:00,
2013-01-12 18:39:00,37.8,35.4,30.15,NE,43,0.0,0.0,91,0.00,CLR,,0.00,WeatherDisplay:10.37,2013-01-12 18:39:00,
2013-01-12 18:54:00,37.6,35.2,30.15,NNE,31,1.0,2.0,91,0.00,CLR,,0.00,WeatherDisplay:10.37,2013-01-12 18:54:00,
2013-01-12 19:09:00,37.6,35.2,30.15,NE,45,1.0,2.0,91,0.00,CLR,,0.00,WeatherDisplay:10.37,2013-01-12 19:09:00,
2013-01-12 19:24:00,37.4,35.0,30.15,NNE,32,2.0,3.0,91,0.00,CLR,,0.00,WeatherDisplay:10.37,2013-01-12 19:24:00,
2013-01-12 19:39:00,37.4,35.0,30.15,ENE,61,2.0,3.0,91,0.00,CLR,,0.00,WeatherDisplay:10.37,2013-01-12 19:39:00,
2013-01-12 19:54:00,37.4,35.0,30.18,NNE,14,0.0,3.0,91,0.00,CLR,,0.00,WeatherDisplay:10.37,2013-01-12 19:54:00,
2013-01-12 20:09:00,37.2,34.8,30.18,ENE,63,0.0,1.0,91,0.00,CLR,,0.00,WeatherDisplay:10.37,2013-01-12 20:09:00,
2013-01-12 20:24:00,37.0,34.7,30.18,NNE,27,0.0,0.0,91,0.00,CLR,,0.00,WeatherDisplay:10.37,2013-01-12 20:24:00,
2013-01-12 20:39:00,36.9,34.5,30.18,NE,52,0.0,0.0,91,0.00,CLR,,0.00,WeatherDisplay:10.37,2013-01-12 20:39:00,
2013-01-12 20:54:00,36.9,34.5,30.18,ENE,64,3.0,5.0,91,0.00,CLR,,0.00,WeatherDisplay:10.37,2013-01-12 20:54:00,
2013-01-12 21:09:00,36.9,34.8,30.18,ENE,61,1.0,3.0,92,0.00,CLR,,0.00,WeatherDisplay:10.37,2013-01-12 21:09:00,
2013-01-12 21:24:00,37.0,34.9,30.18,NNE,25,2.0,3.0,92,0.00,CLR,,0.00,WeatherDisplay:10.37,2013-01-12 21:24:00,
2013-01-12 21:39:00,37.0,34.9,30.18,ENE,59,0.0,3.0,92,0.00,CLR,,0.00,WeatherDisplay:10.37,2013-01-12 21:39:00,
2013-01-12 21:54:00,37.0,34.9,30.18,NE,49,2.0,6.0,92,0.00,CLR,,0.00,WeatherDisplay:10.37,2013-01-12 21:54:00,
2013-01-12 22:09:00,37.0,34.9,30.18,ENE,58,3.0,7.0,92,0.00,CLR,,0.00,WeatherDisplay:10.37,2013-01-12 22:09:00,
2013-01-12 22:24:00,37.0,34.9,30.18,ENE,58,1.0,3.0,92,0.00,CLR,,0.00,WeatherDisplay:10.37,2013-01-12 22:24:00,
2013-01-12 22:39:00,37.0,34.9,30.18,NE,37,0.0,1.0,92,0.00,CLR,,0.00,WeatherDisplay:10.37,2013-01-12 22:39:00,
2013-01-12 22:54:00,37.0,34.9,30.18,ENE,58,3.0,3.0,92,0.00,CLR,,0.00,WeatherDisplay:10.37,2013-01-12 22:54:00,
2013-01-12 23:09:00,37.0,34.9,30.18,ENE,74,0.0,3.0,92,0.00,CLR,,0.00,WeatherDisplay:10.37,2013-01-12 23:09:00,
2013-01-12 23:24:00,37.0,34.7,30.18,NE,52,0.0,2.0,91,0.00,CLR,,0.00,WeatherDisplay:10.37,2013-01-12 23:24:00,
2013-01-12 23:39:00,37.0,34.7,30.18,ENE,66,0.0,2.0,91,0.00,CLR,,0.00,WeatherDisplay:10.37,2013-01-12 23:39:00,
2013-01-12 23:54:00,36.9,34.5,30.18,ENE,68,2.0,3.0,91,0.00,CLR,,0.00,WeatherDisplay:10.37,2013-01-12 23:54:00,